Location: El Águila
(10.4167°N, 66.7167°W)
Time: 05:37:24
(UTC+00:00)

Cosmos 1092 Rocket - Pass Details

Date: 02 October 2022
Orbit: 954 x 995 km, 83.0° (Epoch: 04 December)

Event Time Altitude Azimuth Distance (km) Brightness Sun altitude
Rises 23:01:23 0° 166° (SSE) 3,702 6.9 -11.8°
Reaches altitude 10° 23:04:05 10° 158° (SSE) 2,754 6.2 -12.5°
Maximum altitude 23:09:53 39° 92° (E) 1,444 4.4 -13.9°
Drops below altitude 10° 23:15:40 10° 25° (NNE) 2,743 6.1 -15.3°
Sets 23:18:20 0° 18° (NNE) 3,687 6.8 -16.0°
